Flight Track Log - Related Links

Times and Time Zones

All times are in EDT time to prevent confusion due to time zone crossing. See the SWA378 flight status page for this flight to view local times or setup timezone preferences in your user account.

Time Position Orientation Groundspeed Altitude Reporting Facility
EDT Latitude Longitude Course Direction KTS MPH feet Rate Location/Type
Fri 11:33:37 AM 37.3833 -121.9500 322° Northwest 157 181 1,200  Level Northern Cal TRACON
Fri 11:34:31 AM 37.4167 -121.9833 322° Northwest 192 221 3,400 2,053 Climbing Northern Cal TRACON
Fri 11:35:31 AM 37.4167 -121.9333 90° East 232 267 5,100 1,263 Climbing Northern Cal TRACON
Fri 11:36:25 AM 37.3833 -121.8667 122° Southeast 238 274 5,800 1,842 Climbing Northern Cal TRACON
Fri 11:37:12 AM 37.3619 -121.8253 123° Southeast 234 269 8,200 2,697 Climbing Oakland Center
Fri 11:38:14 AM 37.3033 -121.7592 138° Southeast 290 334 10,700 2,732 Climbing Oakland Center
Fri 11:39:15 AM 37.2353 -121.6817 138° Southeast 329 379 13,800 3,393 Climbing Oakland Center
Fri 11:40:16 AM 37.1461 -121.5803 138° Southeast 361 415 17,600 3,171 Climbing Oakland Center
Fri 11:41:18 AM 37.0681 -121.4933 138° Southeast 380 437 20,300 2,683 Climbing Oakland Center
Fri 11:42:19 AM 36.9825 -121.4014 139° Southeast 401 461 23,100 2,585 Climbing Oakland Center
Fri 11:43:21 AM 36.8950 -121.3050 139° Southeast 418 481 25,600 2,146 Climbing Oakland Center
Fri 11:44:22 AM 36.8075 -121.2114 139° Southeast 434 499 27,500 1,820 Climbing Oakland Center
Fri 11:45:23 AM 36.7108 -121.1097 140° Southeast 452 520 29,300 1,854 Climbing Oakland Center
Fri 11:46:25 AM 36.5914 -120.9803 139° Southeast 472 543 31,300 1,984 Climbing Oakland Center
Fri 11:47:27 AM 36.4897 -120.8714 139° Southeast 481 554 33,400 1,951 Climbing Oakland Center
Fri 11:48:28 AM 36.3911 -120.7617 138° Southeast 475 547 35,300 1,672 Climbing Oakland Center
Fri 11:49:29 AM 36.2919 -120.6556 139° Southeast 472 543 36,800 1,377 Climbing Oakland Center
Fri 11:50:30 AM 36.1869 -120.5558 143° Southeast 477 549 38,100 1,073 Climbing Oakland Center
Fri 11:51:32 AM 36.0558 -120.5317 172° South 480 552 39,000 439 Climbing Oakland Center
Fri 11:52:33 AM 35.9267 -120.5119 173° South 478 550 39,000  Level Oakland Center
Fri 11:53:35 AM 35.8297 -120.4081 139° Southeast 472 543 39,000  Level Oakland Center
Fri 11:54:36 AM 35.7958 -120.2631 106° East 440 506 39,000  Level Oakland Center
Fri 11:55:38 AM 35.7719 -120.1142 101° East 439 505 39,000  Level Oakland Center
Fri 11:56:39 AM 35.7064 -119.9542 117° Southeast 466 536 39,000  Level Oakland Center
Fri 11:57:40 AM 35.5917 -119.8747 151° Southeast 469 540 39,000  Level Oakland Center
Fri 11:58:42 AM 35.4764 -119.7950 151° Southeast 471 542 39,000  Level Oakland Center
Fri 11:59:43 AM 35.3614 -119.7142 150° Southeast 473 544 39,000  Level Oakland Center
Fri 12:00:09 PM 35.3153 -119.6831 151° Southeast 471 542 39,000 -897 Level Los Angeles Center
Fri 12:01:10 PM 35.2031 -119.5975 148° Southeast 472 543 37,700 -1,600 Descending Los Angeles Center
Fri 12:02:24 PM 35.0933 -119.5089 147° Southeast 472 543 35,400 -1,500 Descending Los Angeles Center
Fri 12:03:26 PM 34.9489 -119.4342 157° South 468 539 34,300 -2,015 Descending Los Angeles Center
Fri 12:04:41 PM 34.8300 -119.3561 152° Southeast 484 557 30,800 -3,372 Descending Los Angeles Center
Fri 12:05:43 PM 34.6889 -119.2125 140° Southeast 473 544 26,600 -2,903 Descending Los Angeles Center
Fri 12:06:45 PM 34.5864 -119.1122 141° Southeast 445 512 24,800 -1,935 Descending Los Angeles Center
Fri 12:07:47 PM 34.4950 -119.0197 140° Southeast 430 495 22,600 -2,032 Descending Los Angeles Center
Fri 12:08:49 PM 34.4075 -118.9314 140° Southeast 409 471 20,600 -1,968 Descending Los Angeles Center
Fri 12:09:52 PM 34.3144 -118.8644 149° Southeast 393 452 18,500 -2,400 Descending Los Angeles Center
Fri 12:10:54 PM 34.2108 -118.8267 163° South 391 450 15,600 -3,000 Descending Los Angeles Center
Fri 12:11:56 PM 34.1011 -118.7875 164° South 410 472 12,300 -2,710 Descending Los Angeles Center
Fri 12:12:58 PM 34.0269 -118.6872 132° Southeast 351 404 10,000 -1,306 Descending Los Angeles Center
Fri 12:14:00 PM 34.0236 -118.5836 92° East 283 326 9,600 -484 Descending Los Angeles Center
Fri 12:15:02 PM 34.0147 -118.5031 98° East 241 277 9,000 -629 Descending Los Angeles Center
Fri 12:16:04 PM 34.0144 -118.4339 90° East 217 250 8,300 -823 Descending Los Angeles Center
Fri 12:17:06 PM 34.0217 -118.3681 82° East 199 229 7,300 -1,113 Descending Los Angeles Center
Fri 12:18:08 PM 34.0303 -118.3042 81° East 194 223 6,000 -1,355 Descending Los Angeles Center
Fri 12:19:10 PM 34.0408 -118.2253 81° East 197 227 4,500 -1,344 Descending Los Angeles Center
Fri 12:20:13 PM 34.0522 -118.1589 78° East 200 230 3,200 -912 Descending Los Angeles Center
Fri 12:21:15 PM 34.0075 -118.1303 152° Southeast 201 231 2,600 -484 Descending Los Angeles Center
Fri 12:22:17 PM 33.9756 -118.1789 232° Southwest 199 229 2,200 -194 Descending Los Angeles Center
Fri 12:23:19 PM 33.9686 -118.2367 262° West 180 207 2,200 -132 Level Los Angeles Center
Fri 12:24:33 PM 33.9639 -118.2942 264° West 176 203 1,900 -613 Descending Los Angeles Center
Fri 12:25:36 PM 33.9569 -118.3656 263° West 162 186 800 -816 Descending Los Angeles Center
Fri 12:26:38 PM 33.9508 -118.4133 261° West 148 170 200 -581 Descending Los Angeles Center
Fri 12:28:00 PM 33.9425 -118.4081 231° Southwest  Level Estimated

Login

Don't have an account? Register now (free) for customized features, flight alerts, and more!